Location: Opava
(49.9500°N, 17.9170°E)
Time: 03:24:51
(UTC+01:00)

ISS - Pass Details

Date: 04 October 2020
Orbit: 417 x 420 km, 51.6° (Epoch: 25 October)

Event Time Altitude Azimuth Distance (km) Brightness Sun altitude
Rises 20:20:54 0° 283° (WNW) 2,369 1.7 -20.2°
Reaches altitude 10° 20:23:30 10° 263° (W) 1,502 0.0 -20.6°
Maximum altitude 20:25:45 17° 220° (SW) 1,150 -1.3 -20.9°
Enters shadow 20:26:34 16° 202° (SSW) 1,201 -1.4 -21.0°
